Mojave, CA

8:20 AM PST on February 24, 2018 (GMT -0800)
Mojave

Weather History for KMHV - May, 2014

Change the Weather History Date:

Friday, May 30, 2014

  Actual Average Record
Temperature  
Mean Temperature 74 °F -  
Max Temperature 91 °F 83 °F 101 °F (1984)
Min Temperature 57 °F 59 °F 46 °F (1985)
Cooling Degree Days 9    
Growing Degree Days 24 (Base 50)    
Moisture  
Dew Point 16 °F    
Average Humidity 11    
Maximum Humidity 17    
Minimum Humidity 5    
Precipitation  
Precipitation 0.00 in - - ()
Sea Level Pressure  
Sea Level Pressure 29.91 in    
Wind  
Wind Speed 10 mph (WSW)    
Max Wind Speed 23 mph    
Max Gust Speed 36 mph    
Visibility 10 miles    
Events      
Averages and records for this station are not official NWS values.
T = Trace of Precipitation, MM = Missing Value Source: NWS Daily Summary

Daily Weather History Graph

Daily Weather History Graph

Search for Another Location

Airport or City:

Trip Planner

Search our weather history database for the weather conditions in past years. The results will help you decide how hot, cold, wet, or windy it might be!

Date:

Astronomy

May. 30, 2014 Rise Set
Actual Time 5:40 AM PDT 8:00 PM PDT
Civil Twilight 5:11 AM PDT 8:29 PM PDT
Nautical Twilight 4:35 AM PDT 9:05 PM PDT
Astronomical Twilight 3:56 AM PDT 9:44 PM PDT
Moon 7:26 AM PDT (5/30) 9:43 PM PDT (5/30)
Length of Visible Light 15h 18m
Length of Day
14h 19m
Waxing Crescent, 4% of the Moon is Illuminated
May 30
Waxing Crescent
Jun 5
First Quarter
Jun 12
Full
Jun 19
Last Quarter
Jun 27
New

Hourly Weather History & Observations

Time (PDT) Temp. Dew Point Humidity Pressure Visibility Wind Dir Wind Speed Gust Speed Precip Events Conditions
12:15 AM 68.0 °F 15.8 °F 13% 29.93 in 10.0 mi West 11.5 mph - N/A   Clear
12:35 AM 68.0 °F 14.0 °F 12% 29.93 in 10.0 mi WSW 11.5 mph - N/A   Clear
12:55 AM 68.0 °F 8.6 °F 10% 29.92 in 10.0 mi West 8.1 mph - N/A   Clear
1:15 AM 68.0 °F 8.6 °F 10% 29.92 in 10.0 mi WSW 11.5 mph - N/A   Clear
1:35 AM 68.0 °F 8.6 °F 10% 29.92 in 10.0 mi WSW 9.2 mph - N/A   Clear
1:55 AM 68.0 °F 8.6 °F 10% 29.91 in 10.0 mi WSW 10.4 mph - N/A   Clear
2:15 AM 66.2 °F 14.0 °F 13% 29.91 in 10.0 mi SW 6.9 mph - N/A   Clear
2:35 AM 66.2 °F 10.4 °F 11% 29.91 in 10.0 mi SW 5.8 mph - N/A   Clear
2:55 AM 64.4 °F 10.4 °F 12% 29.91 in 10.0 mi SW 8.1 mph - N/A   Clear
3:15 AM 64.4 °F 10.4 °F 12% 29.90 in 10.0 mi WSW 6.9 mph - N/A   Clear
3:35 AM 62.6 °F 10.4 °F 13% 29.90 in 10.0 mi SW 10.4 mph - N/A   Clear
3:55 AM 62.6 °F 12.2 °F 14% 29.90 in 10.0 mi SW 8.1 mph - N/A   Clear
4:15 AM 62.6 °F 12.2 °F 14% 29.90 in 10.0 mi SW 6.9 mph - N/A   Clear
4:35 AM 59.0 °F 12.2 °F 16% 29.91 in 10.0 mi SW 8.1 mph - N/A   Clear
4:55 AM 59.0 °F 14.0 °F 17% 29.91 in 10.0 mi SW 8.1 mph - N/A   Clear
5:15 AM 59.0 °F 14.0 °F 17% 29.91 in 10.0 mi Calm Calm - N/A   Clear
5:35 AM 57.2 °F 12.2 °F 17% 29.91 in 10.0 mi Calm Calm - N/A   Clear
5:55 AM 59.0 °F 14.0 °F 17% 29.92 in 9.0 mi West 5.8 mph - N/A   Clear
6:15 AM 60.8 °F 14.0 °F 16% 29.91 in 10.0 mi West 5.8 mph - N/A   Clear
6:35 AM 62.6 °F 14.0 °F 15% 29.92 in 10.0 mi WNW 5.8 mph - N/A   Clear
6:55 AM 66.2 °F 15.8 °F 14% 29.92 in 10.0 mi Calm Calm - N/A   Clear
7:15 AM 66.2 °F 15.8 °F 14% 29.92 in 8.0 mi Calm Calm - N/A   Clear
7:35 AM 68.0 °F 15.8 °F 13% 29.93 in 10.0 mi Calm Calm - N/A   Clear
7:55 AM 69.8 °F 17.6 °F 14% 29.94 in 10.0 mi Calm Calm - N/A   Clear
8:15 AM 71.6 °F 19.4 °F 14% 29.93 in 10.0 mi Calm Calm - N/A   Clear
8:35 AM 71.6 °F 19.4 °F 14% 29.94 in 10.0 mi SE 4.6 mph - N/A   Clear
8:55 AM 73.4 °F 19.4 °F 13% 29.94 in 10.0 mi Calm Calm - N/A   Clear
9:15 AM 73.4 °F 19.4 °F 13% 29.95 in 10.0 mi Calm Calm - N/A   Clear
9:35 AM 75.2 °F 19.4 °F 12% 29.95 in 10.0 mi Calm Calm - N/A   Clear
9:55 AM 77.0 °F 19.4 °F 12% 29.94 in 10.0 mi Calm Calm - N/A   Clear
10:15 AM 80.6 °F 17.6 °F 10% 29.94 in 10.0 mi South 3.5 mph - N/A   Clear
10:35 AM 80.6 °F 15.8 °F 9% 29.94 in 10.0 mi Calm Calm - N/A   Clear
10:55 AM 82.4 °F 15.8 °F 8% 29.93 in 10.0 mi SSE 4.6 mph - N/A   Clear
11:15 AM 84.2 °F 15.8 °F 8% 29.93 in 10.0 mi South 6.9 mph - N/A   Clear
11:35 AM 84.2 °F 14.0 °F 7% 29.93 in 10.0 mi South 6.9 mph - N/A   Clear
11:55 AM 86.0 °F 10.4 °F 6% 29.93 in 10.0 mi South 10.4 mph 16.1 mph N/A   Clear
12:15 PM 87.8 °F 14.0 °F 6% 29.93 in 10.0 mi SW 8.1 mph 16.1 mph N/A   Clear
12:35 PM 87.8 °F 12.2 °F 6% 29.92 in 10.0 mi SSW 12.7 mph 18.4 mph N/A   Clear
12:55 PM 89.6 °F 10.4 °F 5% 29.91 in 10.0 mi SSW 13.8 mph 20.7 mph N/A   Clear
1:15 PM 89.6 °F 14.0 °F 6% 29.91 in 10.0 mi South 13.8 mph 21.9 mph N/A   Clear
1:35 PM 89.6 °F 17.6 °F 7% 29.90 in 10.0 mi SSW 11.5 mph 24.2 mph N/A   Clear
2:15 PM 91.4 °F 14.0 °F 6% 29.89 in 10.0 mi SSW 23.0 mph 27.6 mph N/A   Clear
2:35 PM 91.4 °F 12.2 °F 5% 29.89 in 10.0 mi SSW 19.6 mph 24.2 mph N/A   Clear
2:55 PM 91.4 °F 15.8 °F 6% 29.89 in 10.0 mi SSW 16.1 mph 29.9 mph N/A   Clear
3:15 PM 91.4 °F 15.8 °F 6% 29.89 in 10.0 mi SW 20.7 mph 25.3 mph N/A   Clear
3:35 PM 91.4 °F 15.8 °F 6% 29.88 in 10.0 mi SW 15.0 mph 29.9 mph N/A   Clear
3:55 PM 91.4 °F 17.6 °F 7% 29.88 in 10.0 mi SSW 18.4 mph 28.8 mph N/A   Clear
4:15 PM 91.4 °F 14.0 °F 6% 29.87 in 10.0 mi SW 19.6 mph 27.6 mph N/A   Clear
4:35 PM 89.6 °F 15.8 °F 7% 29.87 in 10.0 mi SW 21.9 mph 35.7 mph N/A   Clear
4:55 PM 89.6 °F 19.4 °F 8% 29.87 in 10.0 mi West 16.1 mph 20.7 mph N/A   Clear
5:15 PM 89.6 °F 19.4 °F 8% 29.87 in 10.0 mi West 16.1 mph 19.6 mph N/A   Clear
5:35 PM 87.8 °F 19.4 °F 8% 29.87 in 10.0 mi West 19.6 mph 24.2 mph N/A   Clear
5:55 PM 87.8 °F 19.4 °F 8% 29.87 in 10.0 mi West 20.7 mph - N/A   Clear
6:15 PM 86.0 °F 19.4 °F 9% 29.87 in 10.0 mi West 13.8 mph 19.6 mph N/A   Clear
6:35 PM 86.0 °F 17.6 °F 8% 29.88 in 10.0 mi West 16.1 mph - N/A   Clear
6:55 PM 84.2 °F 17.6 °F 8% 29.88 in 10.0 mi West 15.0 mph 21.9 mph N/A   Clear
7:15 PM 82.4 °F 17.6 °F 9% 29.88 in 10.0 mi West 18.4 mph 21.9 mph N/A   Clear
7:35 PM 82.4 °F 19.4 °F 10% 29.89 in 10.0 mi West 17.3 mph - N/A   Clear
7:55 PM 80.6 °F 21.2 °F 11% 29.89 in 10.0 mi West 16.1 mph - N/A   Clear
8:15 PM 78.8 °F 23.0 °F 13% 29.90 in 10.0 mi West 16.1 mph 20.7 mph N/A   Clear
8:35 PM 77.0 °F 21.2 °F 12% 29.90 in 10.0 mi West 16.1 mph 24.2 mph N/A   Clear
8:55 PM 77.0 °F 23.0 °F 13% 29.90 in 10.0 mi West 18.4 mph 26.5 mph N/A   Clear
9:15 PM 75.2 °F 24.8 °F 15% 29.91 in 10.0 mi West 20.7 mph 24.2 mph N/A   Clear
9:35 PM 75.2 °F 24.8 °F 15% 29.92 in 10.0 mi West 15.0 mph 25.3 mph N/A   Clear
9:55 PM 75.2 °F 24.8 °F 15% 29.92 in 10.0 mi West 15.0 mph 18.4 mph N/A   Clear
10:15 PM 73.4 °F 24.8 °F 16% 29.93 in 10.0 mi West 11.5 mph 16.1 mph N/A   Clear
10:35 PM 75.2 °F 24.8 °F 15% 29.93 in 10.0 mi West 16.1 mph 20.7 mph N/A   Clear
10:55 PM 75.2 °F 23.0 °F 14% 29.92 in 10.0 mi West 13.8 mph 24.2 mph N/A   Clear
11:15 PM 73.4 °F 23.0 °F 15% 29.92 in 10.0 mi WSW 8.1 mph 20.7 mph N/A   Clear
11:35 PM 73.4 °F 23.0 °F 15% 29.92 in 10.0 mi West 17.3 mph 25.3 mph N/A   Clear
11:55 PM 73.4 °F 21.2 °F 14% 29.92 in 10.0 mi West 11.5 mph - N/A   Clear